Погода в Гронингене

Нидерланды     53°12′49″N   6°33′21″E
темп.,
°C
ветер,
м/с
пор.,
м/с
влажн.,
%
обл.,
%
осадки,
мм/ч
давл.,
гПа
погр.,
м
21 июня, пн
пн2123:00+12с5985100 0.0 1010347
02:00+12св5983100 0.0 1011500
05:00+13ссв6978100 0.0 1009564
08:00+12ссв61092100 0.8 1008549
11:00+12ссв71195100 4.8 1009652
14:00+12ссв71193100 6.3 1010690
17:00+12с61093100 2.3 1012622
20:00+12с598970 2.5 1014482
22 июня, вт
вт2223:00+11с369373 0.0 1015138
02:00+11с36923 0.1 1015114
05:00+10ссз368990 0.0 1016120
08:00+13ссз3580100 0.0 1017690
11:00+15с556790 0.1 10181208
14:00+16с5563100 0.1 10191273
17:00+15с5566100 0.0 10191035
20:00+14с467789 0.0 1020735
23 июня, ср
ср2323:00+10с358928 0.0 102184
02:00+9с23893 0.0 102126
05:00+9с22887 0.0 102224
08:00+13с4679100 0.0 1022610
11:00+16ссв4467100 0.0 1023854
14:00+17ссв5563100 0.0 1023843
17:00+15ссв4569100 0.0 1023664
20:00+14ссв4678100 0.0 1022474
24 июня, чт
чт2423:00+11ссв3682100 0.0 1023107
02:00+9ссв33896 0.0 102336
05:00+9ссв23895 0.0 102226
08:00+14ссв35775 0.0 1021427
11:00+17ссв44655 0.0 1021772
14:00+18ссв446412 0.0 10201017
17:00+17ссв4464100 0.0 1019731
20:00+15с3675100 0.0 1019348
25 июня, пт
пт2523:00+10ссв2284100 0.0 101916
02:00+9св118776 0.0 101812
05:00+9юз009059 0.0 101711
08:00+13з00806 0.0 1017141
11:00+18св11595 0.0 1017864
14:00+20всв11510 0.0 10171311
17:00+20ссв42560 0.0 1017952
20:00+16ссв35760 0.0 1017272